Time,TemperatureF,DewpointF,PressureIn,WindDirection,WindDirectionDegrees,WindSpeedMPH,WindSpeedGustMPH,Humidity,HourlyPrecipIn,Conditions,Clouds,dailyrainin,SoftwareType,DateUTC
2013-07-23 00:06:00,64.8,62.7,29.83,SE,144,0.0,3.0,93,0.00,,,0.00,Wunderground v.1.15,2013-07-23 04:06:00,
2013-07-23 00:46:00,64.3,62.5,29.82,SE,144,0.0,0.0,94,0.00,,,0.00,Wunderground v.1.15,2013-07-23 04:46:00,
2013-07-23 00:56:00,64.2,62.4,29.82,SE,144,0.0,0.0,94,0.00,,,0.00,Wunderground v.1.15,2013-07-23 04:56:00,
2013-07-23 01:16:00,64.0,62.2,29.81,SE,144,0.0,0.0,94,0.00,,,0.00,Wunderground v.1.15,2013-07-23 05:16:00,
2013-07-23 01:36:00,64.0,62.5,29.81,SE,144,0.0,0.0,95,0.00,,,0.00,Wunderground v.1.15,2013-07-23 05:36:00,
2013-07-23 01:56:00,63.9,62.4,29.80,SE,144,0.0,0.0,95,0.00,,,0.00,Wunderground v.1.15,2013-07-23 05:56:00,
2013-07-23 02:05:00,63.7,62.2,29.80,SE,144,0.0,3.0,95,0.00,,,0.00,Wunderground v.1.15,2013-07-23 06:05:00,
2013-07-23 02:16:00,62.9,61.7,29.79,SE,144,2.0,4.0,96,0.00,,,0.00,Wunderground v.1.15,2013-07-23 06:16:00,
2013-07-23 02:25:00,62.7,61.5,29.79,SE,144,2.0,4.0,96,0.00,,,0.00,Wunderground v.1.15,2013-07-23 06:25:00,
2013-07-23 02:56:00,62.6,61.7,29.78,SE,144,0.0,0.0,97,0.00,,,0.00,Wunderground v.1.15,2013-07-23 06:56:00,
2013-07-23 04:05:00,61.6,60.7,29.75,SE,144,0.0,0.0,97,0.00,,,0.01,Wunderground v.1.15,2013-07-23 08:05:00,
2013-07-23 04:15:00,61.6,60.4,29.74,SE,144,0.0,0.0,96,0.00,,,0.01,Wunderground v.1.15,2013-07-23 08:15:00,
2013-07-23 04:36:00,61.3,59.9,29.74,SE,144,0.0,0.0,95,0.00,,,0.02,Wunderground v.1.15,2013-07-23 08:36:00,
2013-07-23 04:46:00,61.3,59.6,29.73,SE,144,0.0,0.0,94,0.00,,,0.02,Wunderground v.1.15,2013-07-23 08:46:00,
2013-07-23 04:55:00,61.3,59.6,29.73,SE,144,0.0,0.0,94,0.04,,,0.03,Wunderground v.1.15,2013-07-23 08:55:00,
2013-07-23 05:06:00,61.3,59.9,29.73,SE,144,0.0,0.0,95,0.07,,,0.04,Wunderground v.1.15,2013-07-23 09:06:00,
2013-07-23 05:16:00,61.3,59.9,29.73,SE,144,0.0,0.0,95,0.06,,,0.05,Wunderground v.1.15,2013-07-23 09:16:00,
2013-07-23 05:26:00,61.3,59.9,29.73,SE,144,0.0,0.0,95,0.04,,,0.06,Wunderground v.1.15,2013-07-23 09:26:00,
2013-07-23 05:46:00,61.3,60.2,29.71,SE,144,0.0,0.0,96,0.08,,,0.09,Wunderground v.1.15,2013-07-23 09:46:00,
2013-07-23 06:16:00,61.2,60.3,29.70,South,174,2.0,4.0,97,0.00,,,0.11,Wunderground v.1.15,2013-07-23 10:16:00,
2013-07-23 06:26:00,61.5,60.6,29.70,South,181,2.0,4.0,97,0.00,,,0.11,Wunderground v.1.15,2013-07-23 10:26:00,
2013-07-23 06:56:00,61.3,60.7,29.69,South,181,0.0,0.0,98,0.10,,,0.16,Wunderground v.1.15,2013-07-23 10:56:00,
2013-07-23 07:05:00,60.9,60.3,29.68,South,181,0.0,0.0,98,0.13,,,0.18,Wunderground v.1.15,2013-07-23 11:05:00,
2013-07-23 07:36:00,61.2,60.6,29.68,South,181,0.0,0.0,98,0.12,,,0.26,Wunderground v.1.15,2013-07-23 11:36:00,
2013-07-23 08:25:00,60.5,59.9,29.66,South,179,0.0,0.0,98,0.14,,,0.36,Wunderground v.1.15,2013-07-23 12:25:00,
2013-07-23 09:05:00,61.3,61.0,29.65,South,179,0.0,0.0,99,0.14,,,0.45,Wunderground v.1.15,2013-07-23 13:05:00,
2013-07-23 09:36:00,60.5,60.2,29.63,South,179,0.0,0.0,99,0.21,,,0.55,Wunderground v.1.15,2013-07-23 13:36:00,
2013-07-23 09:45:00,60.5,60.2,29.63,South,179,0.0,0.0,99,0.28,,,0.62,Wunderground v.1.15,2013-07-23 13:45:00,
2013-07-23 09:56:00,60.7,60.4,29.63,South,179,1.0,1.0,99,0.16,,,0.65,Wunderground v.1.15,2013-07-23 13:56:00,
2013-07-23 10:16:00,60.7,60.4,29.61,South,179,0.0,0.0,99,0.10,,,0.68,Wunderground v.1.15,2013-07-23 14:16:00,
2013-07-23 10:25:00,61.0,60.7,29.61,South,179,0.0,0.0,99,0.05,,,0.68,Wunderground v.1.15,2013-07-23 14:25:00,
2013-07-23 10:35:00,61.2,60.9,29.60,South,179,0.0,0.0,99,0.00,,,0.69,Wunderground v.1.15,2013-07-23 14:35:00,
2013-07-23 10:46:00,61.8,61.5,29.60,South,179,0.0,0.0,99,0.00,,,0.69,Wunderground v.1.15,2013-07-23 14:46:00,
2013-07-23 10:55:00,62.3,62.0,29.60,South,180,0.0,0.0,99,0.00,,,0.70,Wunderground v.1.15,2013-07-23 14:55:00,
2013-07-23 11:06:00,62.3,62.0,29.60,West,274,2.0,3.0,99,0.38,,,0.72,Wunderground v.1.15,2013-07-23 15:06:00,
2013-07-23 11:26:00,62.1,61.8,29.59,WNW,295,0.0,0.0,99,0.26,,,0.92,Wunderground v.1.15,2013-07-23 15:26:00,
2013-07-23 12:35:00,64.0,63.7,29.56,WNW,295,0.0,0.0,99,0.19,,,1.11,Wunderground v.1.15,2013-07-23 16:35:00,
2013-07-23 12:46:00,64.2,63.9,29.56,WNW,295,0.0,0.0,99,0.05,,,1.11,Wunderground v.1.15,2013-07-23 16:46:00,
2013-07-23 12:55:00,64.3,64.0,29.56,WNW,295,0.0,0.0,99,0.00,,,1.11,Wunderground v.1.15,2013-07-23 16:55:00,
2013-07-23 13:06:00,64.8,64.5,29.55,WNW,295,0.0,0.0,99,0.00,,,1.11,Wunderground v.1.15,2013-07-23 17:06:00,
2013-07-23 13:15:00,64.2,63.9,29.55,WNW,295,0.0,0.0,99,0.00,,,1.11,Wunderground v.1.15,2013-07-23 17:15:00,
2013-07-23 13:26:00,63.7,63.4,29.55,WNW,295,1.0,1.0,99,0.00,,,1.12,Wunderground v.1.15,2013-07-23 17:26:00,
2013-07-23 13:35:00,64.0,63.7,29.55,WNW,295,1.0,1.0,99,0.06,,,1.13,Wunderground v.1.15,2013-07-23 17:35:00,
2013-07-23 13:56:00,65.0,64.7,29.53,WNW,295,0.0,2.0,99,0.17,,,1.15,Wunderground v.1.15,2013-07-23 17:56:00,
2013-07-23 14:26:00,65.2,64.9,29.52,WNW,294,0.0,0.0,99,0.00,,,1.17,Wunderground v.1.15,2013-07-23 18:26:00,
2013-07-23 14:45:00,65.8,65.5,29.51,WNW,294,0.0,0.0,99,0.00,,,1.17,Wunderground v.1.15,2013-07-23 18:45:00,
2013-07-23 15:06:00,65.6,65.0,29.51,SE,134,1.0,3.0,98,0.00,,,1.17,Wunderground v.1.15,2013-07-23 19:06:00,
2013-07-23 15:25:00,65.2,64.6,29.50,SE,146,1.0,2.0,98,0.00,,,1.18,Wunderground v.1.15,2013-07-23 19:25:00,
2013-07-23 15:46:00,64.7,64.1,29.51,SE,146,0.0,0.0,98,0.35,,,1.23,Wunderground v.1.15,2013-07-23 19:46:00,
2013-07-23 15:56:00,65.0,64.4,29.51,SE,146,0.0,0.0,98,0.12,,,1.26,Wunderground v.1.15,2013-07-23 19:56:00,
2013-07-23 16:06:00,65.6,65.3,29.51,SE,146,0.0,0.0,99,0.05,,,1.26,Wunderground v.1.15,2013-07-23 20:06:00,
2013-07-23 16:26:00,66.1,65.8,29.50,SE,146,1.0,1.0,99,0.00,,,1.27,Wunderground v.1.15,2013-07-23 20:26:00,
2013-07-23 16:36:00,65.6,65.3,29.50,SE,146,0.0,1.0,99,0.00,,,1.27,Wunderground v.1.15,2013-07-23 20:36:00,
2013-07-23 16:56:00,65.6,65.3,29.50,SE,146,0.0,0.0,99,0.00,,,1.27,Wunderground v.1.15,2013-07-23 20:56:00,
2013-07-23 17:05:00,66.1,65.8,29.50,SE,146,0.0,0.0,99,0.00,,,1.27,Wunderground v.1.15,2013-07-23 21:05:00,
2013-07-23 17:36:00,66.8,66.5,29.49,SE,146,0.0,0.0,99,0.00,,,1.27,Wunderground v.1.15,2013-07-23 21:36:00,
2013-07-23 18:36:00,67.4,66.8,29.47,SE,146,0.0,0.0,98,0.00,,,1.27,Wunderground v.1.15,2013-07-23 22:36:00,
2013-07-23 18:45:00,67.4,66.8,29.48,SE,146,0.0,0.0,98,0.00,,,1.27,Wunderground v.1.15,2013-07-23 22:45:00,
2013-07-23 19:46:00,65.8,65.2,29.50,SE,146,1.0,1.0,98,0.00,,,1.27,Wunderground v.1.15,2013-07-23 23:46:00,
2013-07-23 19:55:00,65.8,65.2,29.50,SE,146,0.0,1.0,98,0.00,,,1.27,Wunderground v.1.15,2013-07-23 23:55:00,
2013-07-23 20:06:00,65.8,65.2,29.50,SE,146,0.0,1.0,98,0.00,,,1.27,Wunderground v.1.15,2013-07-24 00:06:00,
2013-07-23 20:25:00,65.6,65.0,29.50,SE,146,1.0,1.0,98,0.00,,,1.27,Wunderground v.1.15,2013-07-24 00:25:00,
2013-07-23 20:36:00,65.5,64.9,29.51,SE,146,0.0,2.0,98,0.00,,,1.27,Wunderground v.1.15,2013-07-24 00:36:00,
2013-07-23 20:56:00,65.5,65.2,29.51,SE,146,0.0,2.0,99,0.00,,,1.27,Wunderground v.1.15,2013-07-24 00:56:00,
2013-07-23 21:56:00,65.0,64.7,29.52,SE,146,0.0,0.0,99,0.00,,,1.27,Wunderground v.1.15,2013-07-24 01:56:00,
2013-07-23 22:26:00,64.8,64.5,29.50,SE,146,0.0,0.0,99,0.00,,,1.27,Wunderground v.1.15,2013-07-24 02:26:00,
2013-07-23 22:46:00,64.8,64.5,29.51,SE,146,0.0,0.0,99,0.00,,,1.27,Wunderground v.1.15,2013-07-24 02:46:00,
2013-07-23 22:56:00,64.8,64.5,29.51,SE,146,0.0,0.0,99,0.00,,,1.27,Wunderground v.1.15,2013-07-24 02:56:00,
2013-07-23 23:56:00,64.8,64.5,29.52,SE,146,0.0,0.0,99,0.00,,,1.27,Wunderground v.1.15,2013-07-24 03:56:00,